Flight Briefing for CMB804

Departure Arrival
Guantánamo Bay Naval Air Station (MUGM)
Click to view FAA NOTAMS
Norfolk Naval Station (Chambers Field) (KNGU)
Click to view FAA NOTAMS
Departure Time Arrival Time
N/A N/A
Aircraft Distance
B757-200SF 1025.27nm
Departure METAR Arrival METAR
MUGM 271056Z 34006KT 9999 FEW030 BKN120 BKN250 25/25 A2994 RMK SLP139 T02500250 KNGU 271059Z 32005KT 9SM FEW060 BKN110 BKN300 24/21 A2994 RMK AO2 SLP137 T02390211
Suggested Route
SOUTP EASTP ZIN Y350 ZQA BR65V ZFP WOLFO AR18 PANAL AR3 CLB ISO DRONE2


View recent IFR Routes data
Notes
USTRANSCOM CONTRACT FLIGHT | OVERFLIGHT OF CUBA PROHIBITED, SOUTP & EASTP FIXES MANDATORY

Charts and Procedures

Charts for MUGM
No chart available
Charts for KNGU
No chart available

Windy.com Weather Map